User: anonymous   Login
Location: Unspecified
(42.1900°N, 71.3291°W)
Time: 10:04:54
(UTC-05:00)
Language:

Resurs 1-4 Rocket - Orbit

View from above orbital plane
View from above orbital plane
View from above satellite
View from above satellite

Ground track
Ground track

The orbit data is extracted from the following two-line orbital elements,

1 25400U 98043G   15059.86637600  .00000083  00000-0  52828-4 0  9991
2 25400 098.3706 029.5588 0008891 230.6287 129.4106 14.25306280865505
Epoch (UTC): 28 February 2015 20:47:34
Eccentricity: 0.0008891
inclination: 98.3706°
perigee height: 801 km
apogee height: 814 km
right ascension of ascending node: 29.5588°
argument of perigee: 230.6287°
revolutions per day: 14.25306280
mean anomaly at epoch: 129.4106°
orbit number at epoch: 86550

The dashed part of the orbit path shows where the satellite is in the earth's shadow,  

DLR